Location: Mascot Post Office (historical)
(40.2645°N, 99.5462°W)
Time: 10:25:40
(UTC+00:00)

NOSS 3-4 (C) - Pass Details

Date: 22 October 2020
Orbit: 886 x 1326 km, 63.4° (Epoch: 06 November)

Event Time Altitude Azimuth Distance (km) Brightness Sun altitude
Rises 01:29:57 0° 329° (NNW) 3,737 7.0 -20.0°
Reaches altitude 10° 01:34:06 10° 355° (N) 2,880 6.0 -20.8°
Maximum altitude 01:37:28 14° 25° (NNE) 2,674 5.6 -21.4°
Enters shadow 01:38:43 13° 36° (NE) 2,741 5.5 -21.7°
